Strona główna
METAR-TAF:

METAR-TAF

Lotnisko :

Sisseton Municipal Airport

Sisseton, Dakota Południowa, Stany Zjednoczone

Szerokość geograficzna: 45-40-08N, Długość geograficzna: 096-59-29W, wysokość: 354 m

Aktualna obserwacja pogody

Raport powstał 23 minut temu, godzina 05:56 UTC
Cisza
Temperatura -22°C
Wilgotność 84%
Ciśnienie 1040 hPa

METAR: K8D3 200556Z AUTO 00000KT M22/M24 A3072 RMK AO1 SLP459 T12171244 11167 21228 411391228 50001

czas: 00:19 (06:19 UTC)


TAF: brakujący

Obserwacja i prognoza pogody dla ponad 4000 lotnisk (raport METAR i TAF).

Dostępne stacje oznaczono żółtymi i czerwonymi punktami na mapie.

Najedź kursorem aby zobaczyć nazwę stacji.

Kliknij aby zobaczyć obserwacje i prognozy pogody.

Aby zmienić mapę: kliknij na zielony przycisk z czarnym krzyżykiem, aby powiększyć; na zielony przycisk z myślnikiem, aby pomniejszyć; na zielone strzałki, aby przejść do map sąsiednich.


METAR-TAF: